229  
ASUS44 KHUN 211710  
RWRHUN  
 
WEATHER ROUNDUP FOR THE TENNESSEE VALLEY  
NATIONAL WEATHER SERVICE HUNTSVILLE AL  
1200 PM CDT THU SEP 21 2017  
 
ALZ001>004-211800-  
NORTHWEST ALABAMA  
 
CITY SKY/WX TMP DP RH WIND PRES REMARKS
 
COURTLAND HCN N/A 84 N/A N/A CALM N/A  
RUSSELLVILLE N/A 84 N/A N/A MISG N/A  
SHOALS AIRPORT SUNNY 87 69 54 CALM 30.09F HX 91  

 
 
ALZ005>007-016-211800-  
NORTH CENTRAL ALABAMA  
 
CITY SKY/WX TMP DP RH WIND PRES REMARKS
 
DECATUR AP CLOUDY 86 73 65 NE5 30.09F HX 93  
HUNTSVILLE AP PTSUNNY 83 76 79 NE9 30.09F HX 91  
MERIDIANVILLE CLOUDY 79 70 73 NE6 30.12F  
REDSTONE ARSN PTSUNNY 81 73 76 E6 30.09F  
VINEMONT AP FAIR 84 70 62 NE7 30.13S  

 
 
ALZ008>010-211800-  
NORTHEAST ALABAMA  
 
CITY SKY/WX TMP DP RH WIND PRES REMARKS
 
ALBERTVILLE CLOUDY 79 77 94 N7 30.11F  
FORT PAYNE PTSUNNY 81 68 65 NW13G22 30.09S  
SCOTTSBORO HCN N/A 73 N/A N/A MISG N/A  
VALLEY HEAD N/A 82 N/A N/A MISG N/A  

 
 
TNZ076-096-097-211800-  
SOUTHEASTERN MIDDLE TENNESSEE  
 
CITY SKY/WX TMP DP RH WIND PRES REMARKS
 
TULLAHOMA MOSUNNY 75 70 83 SW6 30.14F  
WINCHESTER SUNNY 81 70 69 CALM 30.11F  

 
   
..SURROUNDING SITES
 
 
 
CITY SKY/WX TMP DP RH WIND PRES REMARKS
 
ATLANTA MOSUNNY 87 66 49 S5 30.09F  
ANNISTON MOSUNNY 86 69 56 VRB3 30.08F HX 90  
BIRMINGHAM MOSUNNY 87 68 52 CALM 30.10F HX 90  
CHATTANOOGA MOSUNNY 84 67 56 CALM 30.10F  
DALTON SUNNY 84 70 61 NW6 30.10F  
GADSDEN PTSUNNY 86 72 62 CALM 30.08F HX 92  
GOLDEN TRNGL MOSUNNY 88 72 58 NE5 30.07R HX 94  
HALEYVILLE FAIR 87 74 64 VRB3 30.12S HX 95  
JACKSON TN PTSUNNY 89 74 60 CALM 30.08F HX 98  
MEMPHIS MOSUNNY 88 71 57 SW7 30.07F HX 94  
NASHVILLE PTSUNNY 87 73 62 N6 30.10F HX 94  
OXFORD MS FAIR 86 68 54 CALM 30.09S  
ROME MOSUNNY 88 71 57 CALM 30.07F HX 94  
SAVANNAH MOSUNNY 90 73 58 SW3 30.07S HX 98  
SELMER MOSUNNY 86 73 66 CALM 30.08F HX 93  
TUPELO SUNNY 87 71 58 NW6 30.07F HX 93  
TUSCALOOSA SUNNY 89 72 56 NE6 30.06F HX 96  

 
   
..GULF COAST WEATHER
 
 
 
CITY SKY/WX TMP DP RH WIND PRES REMARKS
 
GULFPORT MOSUNNY 89 73 59 NE8 30.02F HX 97  
PASCAGOULA SUNNY 89 72 56 MISG 30.03F HX 96  
MOBILE MOSUNNY 86 73 65 NE7 30.05S HX 93  
GULF SHORES MOSUNNY 88 74 63 SE7 30.02F HX 97  
PENSACOLA MOSUNNY 88 74 63 SE8 30.02F HX 96  
DESTIN SUNNY 89 74 60 VRB6 30.02F HX 98  
PANAMA CITY PTSUNNY 85 71 62 CALM 30.02F HX 91  
APPALACHICOLA CLOUDY 85 76 74 SE5 30.02F HX 94  

 
 
 
 
CLICK HERE TO GO TO PREVIOUS BULLETINS.

The Nexlab AL Page
The Nexlab TN Page Main Text Page